Location: Pinon Hills
(34.4429°N, 117.6403°W)
Time: 22:33:45
(UTC-07:00)

Uosat F - Visible Passes

Search period start: 21 August 2017 00:00
Search period end: 31 August 2017 00:00
Orbit: 750 x 762 km, 98.8° (Epoch: 21 August)

Date Brightness Start Highest point End Pass type
(mag) Time Alt. Az. Time Alt. Az. Time Alt. Az.
21 Aug 13.6 20:03:00 10° SSW 20:07:02 24° W 20:11:04 10° NW visible
23 Aug 14.0 20:24:07 10° SW 20:26:58 15° W 20:29:49 10° WNW visible
26 Aug 13.5 20:03:04 10° SSW 20:07:07 24° W 20:11:11 10° NW visible
28 Aug 13.9 20:24:10 10° SW 20:27:03 15° W 20:29:57 10° WNW visible
29 Aug 12.6 19:42:40 10° SSW 19:47:20 39° W 19:52:01 10° NNW visible
